User: anonymous   Login
Location: Westminster
(33.3626°N, 96.4619°W)
Time: 13:43:20
(UTC+00:00)
Language:

NOAA 6 - Orbit

View from above orbital plane
View from above orbital plane
View from above satellite
View from above satellite

Ground track
Ground track

The orbit data is extracted from the following two-line orbital elements,

1 11416U 79057A   22138.04548283  .00000327  00000-0  13381-3 0  9992
2 11416  98.6650 148.8523 0010131 355.7421   4.3676 14.33745891237376
Epoch (UTC): 18 May 2022 01:05:29
Eccentricity: 0.0010131
inclination: 98.6650°
perigee height: 772 km
apogee height: 786 km
right ascension of ascending node: 148.8523°
argument of perigee: 355.7421°
revolutions per day: 14.33745891
mean anomaly at epoch: 4.3676°
orbit number at epoch: 23737

The dashed part of the orbit path shows where the satellite is in the earth's shadow,  

DLR